,,,PA_Meas_PMT16A,,PR_Meas_QMR101_102,,RH_Meas_QMH101,,SR_Meas_QMS101,,TA_Meas_QMH101,,GenWind,,GenWind,
date,time,status,PA,status,PR,status,RH,status,SR,status,TA,status,DirAvg,status,SpdAvg,
2009-09-30, 00:00:05,VALID,998.592,VALID,0,VALID,87.6338,VALID,0,VALID,23.9744,VALID,27,VALID,0.316797,
2009-09-30, 00:01:05,VALID,998.576,VALID,0,VALID,87.6643,VALID,0,VALID,23.9549,VALID,28,VALID,0.270312,
2009-09-30, 00:02:05,VALID,998.593,VALID,0,VALID,87.6949,VALID,0,VALID,23.9354,VALID,28,VALID,0.303125,
2009-09-30, 00:03:05,VALID,998.547,VALID,0,VALID,87.7177,VALID,0,VALID,23.9372,VALID,28,VALID,0.319531,
2009-09-30, 00:04:05,VALID,998.55,VALID,0,VALID,87.8703,VALID,0,VALID,23.8963,VALID,28,VALID,0.389844,
2009-09-30, 00:05:05,VALID,998.538,VALID,0,VALID,88.0382,VALID,0,VALID,23.8963,VALID,28,VALID,0.361719,
2009-09-30, 00:06:05,VALID,998.531,VALID,0,VALID,87.9771,VALID,0,VALID,23.8963,VALID,28,VALID,0.261328,
2009-09-30, 00:07:05,VALID,998.514,VALID,0,VALID,87.9695,VALID,0,VALID,23.8963,VALID,28,VALID,0.420312,
2009-09-30, 00:08:05,VALID,998.506,VALID,0,VALID,87.9314,VALID,0,VALID,23.9177,VALID,28,VALID,0.365625,
2009-09-30, 00:09:05,VALID,998.49,VALID,0,VALID,87.8627,VALID,0,VALID,23.9177,VALID,28,VALID,0.335938,
2009-09-30, 00:10:05,VALID,998.471,VALID,0,VALID,87.878,VALID,0,VALID,23.9159,VALID,28,VALID,0.347266,
2009-09-30, 00:11:05,VALID,998.444,VALID,0,VALID,87.8856,VALID,0,VALID,23.9372,VALID,28,VALID,0.485547,
2009-09-30, 00:12:05,VALID,998.421,VALID,0,VALID,87.9695,VALID,0,VALID,23.9159,VALID,27,VALID,0.459766,
2009-09-30, 00:13:05,VALID,998.378,VALID,0,VALID,87.8246,VALID,0,VALID,23.9549,VALID,27,VALID,0.110547,
2009-09-30, 00:14:05,VALID,998.365,VALID,0,VALID,87.7025,VALID,0,VALID,23.9531,VALID,27,VALID,0,
2009-09-30, 00:15:05,VALID,998.35,VALID,0,VALID,87.6414,VALID,0,VALID,23.9531,VALID,27,VALID,0.0910156,
2009-09-30, 00:16:05,VALID,998.355,VALID,0,VALID,87.6643,VALID,0,VALID,23.9336,VALID,27,VALID,0.05625,
2009-09-30, 00:17:05,VALID,998.343,VALID,0,VALID,87.7483,VALID,0.112286,VALID,23.9336,VALID,27,VALID,0,
2009-09-30, 00:18:05,VALID,998.329,VALID,0,VALID,87.7483,VALID,0,VALID,23.9336,VALID,27,VALID,0,
2009-09-30, 00:19:05,VALID,998.319,VALID,0,VALID,87.6262,VALID,0,VALID,23.9336,VALID,27,VALID,0,
2009-09-30, 00:20:05,VALID,998.292,VALID,0,VALID,87.672,VALID,0,VALID,23.9354,VALID,27,VALID,0,
2009-09-30, 00:21:05,VALID,998.309,VALID,0,VALID,88.0382,VALID,0.112286,VALID,23.9336,VALID,164,VALID,0.414844,
2009-09-30, 00:22:05,VALID,998.299,VALID,0,VALID,87.8932,VALID,0.112286,VALID,23.9726,VALID,164,VALID,0.108984,
2009-09-30, 00:23:05,VALID,998.307,VALID,0,VALID,87.8932,VALID,0,VALID,24.0701,VALID,159,VALID,0.396094,
2009-09-30, 00:24:05,VALID,998.318,VALID,0,VALID,87.6414,VALID,0,VALID,24.1677,VALID,176,VALID,0.303516,
2009-09-30, 00:25:05,VALID,998.306,VALID,0,VALID,87.1226,VALID,0,VALID,24.2671,VALID,176,VALID,0.176563,
2009-09-30, 00:26:05,VALID,998.299,VALID,0,VALID,86.7564,VALID,0,VALID,24.3238,VALID,176,VALID,0.365625,
2009-09-30, 00:27:05,VALID,998.256,VALID,0,VALID,86.6343,VALID,0,VALID,24.3629,VALID,171,VALID,0.788281,
2009-09-30, 00:28:05,VALID,998.26,VALID,0,VALID,85.5815,VALID,0.112286,VALID,24.558,VALID,177,VALID,1.38008,
2009-09-30, 00:29:05,VALID,998.208,VALID,0,VALID,84.0784,VALID,0,VALID,24.8136,VALID,179,VALID,1.52031,
2009-09-30, 00:30:05,VALID,998.234,VALID,0,VALID,82.6746,VALID,0,VALID,25.0284,VALID,177,VALID,1.70195,
2009-09-30, 00:31:05,VALID,998.218,VALID,0,VALID,81.6446,VALID,0,VALID,25.245,VALID,176,VALID,2.10586,
2009-09-30, 00:32:05,VALID,998.195,VALID,0,VALID,80.6985,VALID,0,VALID,25.3797,VALID,183,VALID,2.15195,
2009-09-30, 00:33:05,VALID,998.198,VALID,0,VALID,79.9584,VALID,0,VALID,25.4969,VALID,177,VALID,2.04063,
2009-09-30, 00:34:05,VALID,998.211,VALID,0,VALID,79.3709,VALID,0,VALID,25.575,VALID,177,VALID,2.01797,
2009-09-30, 00:35:05,VALID,998.192,VALID,0,VALID,78.6843,VALID,0,VALID,25.6726,VALID,176,VALID,2.38047,
2009-09-30, 00:36:05,VALID,998.197,VALID,0,VALID,78.0281,VALID,0,VALID,25.7702,VALID,171,VALID,2.15625,
2009-09-30, 00:37:05,VALID,998.179,VALID,0,VALID,77.7382,VALID,0,VALID,25.8288,VALID,168,VALID,1.95703,
2009-09-30, 00:38:05,VALID,998.184,VALID,0,VALID,77.7916,VALID,0,VALID,25.8503,VALID,181,VALID,1.8457,
2009-09-30, 00:39:05,VALID,998.156,VALID,0,VALID,77.4559,VALID,0,VALID,25.8698,VALID,197,VALID,1.6668,
2009-09-30, 00:40:05,VALID,998.115,VALID,0,VALID,77.1812,VALID,0,VALID,25.8874,VALID,202,VALID,1.51055,
2009-09-30, 00:41:05,VALID,998.1,VALID,0,VALID,76.9371,VALID,0,VALID,25.9264,VALID,204,VALID,1.59531,
2009-09-30, 00:42:05,VALID,998.068,VALID,0,VALID,76.9066,VALID,0,VALID,25.946,VALID,197,VALID,1.53398,
2009-09-30, 00:43:05,VALID,998.031,VALID,0,VALID,76.6166,VALID,0,VALID,25.946,VALID,216,VALID,1.69961,
2009-09-30, 00:44:05,VALID,998.061,VALID,0,VALID,76.7387,VALID,0,VALID,25.9635,VALID,190,VALID,1.29297,
2009-09-30, 00:45:05,VALID,998.051,VALID,0,VALID,76.4335,VALID,0,VALID,25.944,VALID,176,VALID,1.6875,
2009-09-30, 00:46:05,VALID,998.008,VALID,0,VALID,76.2504,VALID,0,VALID,25.9635,VALID,170,VALID,2.04648,
2009-09-30, 00:47:05,VALID,997.998,VALID,0,VALID,76.0749,VALID,0,VALID,25.983,VALID,173,VALID,1.87969,
2009-09-30, 00:48:05,VALID,997.972,VALID,0,VALID,76.2428,VALID,0,VALID,25.9635,VALID,172,VALID,1.87734,
2009-09-30, 00:49:05,VALID,997.991,VALID,0,VALID,76.4793,VALID,0,VALID,25.944,VALID,173,VALID,1.57187,
2009-09-30, 00:50:05,VALID,997.971,VALID,0,VALID,76.3267,VALID,0.112286,VALID,25.946,VALID,166,VALID,1.53242,
2009-09-30, 00:51:05,VALID,997.968,VALID,0,VALID,76.2428,VALID,0,VALID,25.9049,VALID,166,VALID,1.74297,
2009-09-30, 00:52:05,VALID,997.941,VALID,0,VALID,76.2657,VALID,0,VALID,25.9049,VALID,166,VALID,1.675,
2009-09-30, 00:53:05,VALID,997.964,VALID,0,VALID,76.3267,VALID,0,VALID,25.8854,VALID,164,VALID,1.7043,
2009-09-30, 00:54:05,VALID,997.943,VALID,0,VALID,76.5709,VALID,0,VALID,25.8874,VALID,178,VALID,1.43047,
2009-09-30, 00:55:05,VALID,997.92,VALID,0,VALID,76.3267,VALID,0,VALID,25.8659,VALID,180,VALID,2.06289,
2009-09-30, 00:56:05,VALID,997.944,VALID,0,VALID,76.1283,VALID,0,VALID,25.9049,VALID,185,VALID,1.75117,
2009-09-30, 00:57:05,VALID,997.955,VALID,0,VALID,75.5256,VALID,0,VALID,25.983,VALID,199,VALID,1.26133,
2009-09-30, 00:58:05,VALID,997.975,VALID,0,VALID,75.4646,VALID,0,VALID,26.0416,VALID,236,VALID,1.00312,
2009-09-30, 00:59:05,VALID,997.983,VALID,0,VALID,75.3501,VALID,0,VALID,26.0221,VALID,216,VALID,1.15742,
2009-09-30, 01:00:05,VALID,998.021,VALID,0,VALID,75.4417,VALID,0,VALID,26.0026,VALID,203,VALID,0.981641,
2009-09-30, 01:01:05,VALID,998.063,VALID,0,VALID,75.579,VALID,0,VALID,26.0026,VALID,205,VALID,1.05898,
2009-09-30, 01:02:05,VALID,998.089,VALID,0,VALID,75.5104,VALID,0,VALID,25.983,VALID,260,VALID,0.698828,
2009-09-30, 01:03:05,VALID,998.078,VALID,0,VALID,76.3344,VALID,0,VALID,25.944,VALID,260,VALID,0.596484,
2009-09-30, 01:04:05,VALID,998.062,VALID,0,VALID,76.8455,VALID,0,VALID,25.8464,VALID,250,VALID,0.832031,
2009-09-30, 01:05:05,VALID,998.053,VALID,0,VALID,77.288,VALID,0,VALID,25.7292,VALID,250,VALID,0.711328,
2009-09-30, 01:06:05,VALID,998.088,VALID,0,VALID,77.6619,VALID,0,VALID,25.6531,VALID,250,VALID,0.601563,
2009-09-30, 01:07:05,VALID,998.084,VALID,0,VALID,77.9442,VALID,0,VALID,25.573,VALID,251,VALID,0.462109,
2009-09-30, 01:08:05,VALID,998.093,VALID,0,VALID,78.2341,VALID,0,VALID,25.4949,VALID,243,VALID,0.478906,
2009-09-30, 01:09:05,VALID,998.096,VALID,0,VALID,78.4783,VALID,0,VALID,25.4774,VALID,242,VALID,0.352344,
2009-09-30, 01:10:05,VALID,998.074,VALID,0,VALID,78.4859,VALID,0,VALID,25.4383,VALID,242,VALID,0.319922,
2009-09-30, 01:11:05,VALID,998.075,VALID,0,VALID,78.6232,VALID,0,VALID,25.3973,VALID,242,VALID,0.0421875,
2009-09-30, 01:12:05,VALID,998.068,VALID,0,VALID,78.669,VALID,0,VALID,25.3602,VALID,242,VALID,0,
2009-09-30, 01:13:05,VALID,998.068,VALID,0,VALID,78.7835,VALID,0,VALID,25.3193,VALID,242,VALID,0.0304688,
2009-09-30, 01:14:05,VALID,998.076,VALID,0,VALID,79.1726,VALID,0,VALID,25.2997,VALID,242,VALID,0.289063,
2009-09-30, 01:15:05,VALID,998.093,VALID,0,VALID,79.2031,VALID,0,VALID,25.2431,VALID,242,VALID,0.187891,
2009-09-30, 01:16:05,VALID,998.073,VALID,0,VALID,79.2794,VALID,0,VALID,25.1631,VALID,242,VALID,0.296484,
2009-09-30, 01:17:05,VALID,998.095,VALID,0,VALID,79.5769,VALID,0,VALID,25.1436,VALID,242,VALID,0.414453,
2009-09-30, 01:18:05,VALID,998.112,VALID,0,VALID,79.3633,VALID,0,VALID,25.1241,VALID,242,VALID,0.323828,
2009-09-30, 01:19:05,VALID,998.109,VALID,0,VALID,79.2794,VALID,0,VALID,25.1045,VALID,242,VALID,0.180078,
2009-09-30, 01:20:05,VALID,998.125,VALID,0,VALID,79.5312,VALID,0,VALID,25.1045,VALID,242,VALID,0.497266,
2009-09-30, 01:21:05,VALID,998.139,VALID,0,VALID,79.905,VALID,0,VALID,25.0655,VALID,91,VALID,0.953906,
2009-09-30, 01:22:05,VALID,998.106,VALID,0,VALID,80.6756,VALID,0,VALID,25.0069,VALID,95,VALID,0.840234,
2009-09-30, 01:23:05,VALID,998.1,VALID,0,VALID,81.614,VALID,0,VALID,24.8898,VALID,90,VALID,0.569922,
2009-09-30, 01:24:05,VALID,998.099,VALID,0,VALID,82.2702,VALID,0,VALID,24.7727,VALID,94,VALID,0.410937,
2009-09-30, 01:25:05,VALID,998.096,VALID,0,VALID,82.8272,VALID,0,VALID,24.6556,VALID,94,VALID,0.0972656,
2009-09-30, 01:26:05,VALID,998.077,VALID,0,VALID,83.4223,VALID,0,VALID,24.5794,VALID,94,VALID,0.435156,
2009-09-30, 01:27:05,VALID,998.103,VALID,0,VALID,83.9869,VALID,0,VALID,24.48,VALID,94,VALID,0,
2009-09-30, 01:28:05,VALID,998.093,VALID,0,VALID,84.5515,VALID,0,VALID,24.3824,VALID,94,VALID,0.311719,
2009-09-30, 01:29:05,VALID,998.106,VALID,0,VALID,85.2763,VALID,0,VALID,24.2848,VALID,32,VALID,0.540234,
2009-09-30, 01:30:05,VALID,998.091,VALID,0,VALID,85.8332,VALID,0,VALID,24.1872,VALID,23,VALID,0.603906,
2009-09-30, 01:31:05,VALID,998.084,VALID,0,VALID,86.3368,VALID,0,VALID,24.1092,VALID,23,VALID,0.662891,
2009-09-30, 01:32:05,VALID,998.096,VALID,0,VALID,86.7259,VALID,0,VALID,24.0506,VALID,14,VALID,0.748828,
2009-09-30, 01:33:05,VALID,998.094,VALID,0,VALID,87.1226,VALID,0,VALID,23.9939,VALID,10,VALID,0.679688,
2009-09-30, 01:34:05,VALID,998.114,VALID,0,VALID,87.4354,VALID,0,VALID,23.914,VALID,10,VALID,0.6625,
2009-09-30, 01:35:05,VALID,998.101,VALID,0,VALID,87.7864,VALID,0,VALID,23.8963,VALID,10,VALID,0.705078,
2009-09-30, 01:36:05,VALID,998.068,VALID,0,VALID,87.9466,VALID,0,VALID,23.8555,VALID,10,VALID,0.699219,
2009-09-30, 01:37:05,VALID,998.027,VALID,0,VALID,87.9314,VALID,0,VALID,23.8573,VALID,10,VALID,0.714453,
2009-09-30, 01:38:05,VALID,998.031,VALID,0,VALID,87.939,VALID,0,VALID,23.8378,VALID,19,VALID,0.657031,
2009-09-30, 01:39:05,VALID,998.008,VALID,0,VALID,87.9695,VALID,0,VALID,23.8183,VALID,19,VALID,0.625,
2009-09-30, 01:40:05,VALID,998.073,VALID,0,VALID,88.0306,VALID,0,VALID,23.7793,VALID,19,VALID,0.514453,
2009-09-30, 01:41:05,VALID,998.057,VALID,0,VALID,88.1679,VALID,0,VALID,23.6994,VALID,19,VALID,0.509375,
2009-09-30, 01:42:04,VALID,998.081,VALID,0,VALID,88.4044,VALID,0,VALID,23.6799,VALID,19,VALID,0.956641,
2009-09-30, 01:43:04,VALID,998.069,VALID,0,VALID,88.7401,VALID,0,VALID,23.6604,VALID,18,VALID,1.07383,
2009-09-30, 01:44:04,VALID,998.081,VALID,0,VALID,88.7554,VALID,0,VALID,23.6214,VALID,18,VALID,0.917188,
2009-09-30, 01:45:04,VALID,998.042,VALID,0,VALID,88.9156,VALID,0,VALID,23.5823,VALID,7,VALID,0.978125,
2009-09-30, 01:46:04,VALID,998.049,VALID,0,VALID,89.0224,VALID,0,VALID,23.5433,VALID,12,VALID,0.996484,
2009-09-30, 01:47:04,VALID,998.054,VALID,0,VALID,89.1674,VALID,0,VALID,23.5238,VALID,15,VALID,0.978906,
2009-09-30, 01:48:04,VALID,998.043,VALID,0,VALID,89.2513,VALID,0,VALID,23.5043,VALID,12,VALID,0.934766,
2009-09-30, 01:49:04,VALID,998.069,VALID,0,VALID,89.2971,VALID,0,VALID,23.5043,VALID,12,VALID,0.819141,
2009-09-30, 01:50:04,VALID,998.058,VALID,0,VALID,89.4191,VALID,0,VALID,23.5256,VALID,12,VALID,0.728516,
2009-09-30, 01:51:04,VALID,998.064,VALID,0,VALID,89.3581,VALID,0,VALID,23.5238,VALID,357,VALID,0.627734,
2009-09-30, 01:52:04,VALID,998.061,VALID,0,VALID,89.2132,VALID,0,VALID,23.5646,VALID,12,VALID,0.908203,
2009-09-30, 01:53:04,VALID,998.062,VALID,0,VALID,89.1216,VALID,0,VALID,23.5433,VALID,23,VALID,1.0875,
2009-09-30, 01:54:04,VALID,998.041,VALID,0,VALID,89.0987,VALID,0,VALID,23.5433,VALID,24,VALID,1.2625,
2009-09-30, 01:55:04,VALID,998.065,VALID,0,VALID,88.9232,VALID,0,VALID,23.5433,VALID,27,VALID,1.21992,
2009-09-30, 01:56:04,VALID,998.071,VALID,0,VALID,88.969,VALID,0,VALID,23.5043,VALID,33,VALID,1.25273,
2009-09-30, 01:57:04,VALID,998.05,VALID,0,VALID,89.0987,VALID,0,VALID,23.5256,VALID,33,VALID,1.27734,
2009-09-30, 01:58:04,VALID,998.051,VALID,0,VALID,89.0987,VALID,0,VALID,23.5061,VALID,33,VALID,1.23828,
2009-09-30, 01:59:04,VALID,998.06,VALID,0,VALID,89.0224,VALID,0,VALID,23.5061,VALID,35,VALID,1.01055,
2009-09-30, 02:00:04,VALID,998.027,VALID,0,VALID,88.9843,VALID,0,VALID,23.4848,VALID,35,VALID,0.960547,
2009-09-30, 02:01:04,VALID,998.035,VALID,0,VALID,88.9309,VALID,0,VALID,23.4848,VALID,43,VALID,0.805469,
2009-09-30, 02:02:04,VALID,998.023,VALID,0,VALID,88.9995,VALID,0,VALID,23.4653,VALID,40,VALID,1.11641,
2009-09-30, 02:03:04,VALID,998.071,VALID,0,VALID,89.0224,VALID,0,VALID,23.4458,VALID,32,VALID,1.3957,
2009-09-30, 02:04:04,VALID,998.088,VALID,0,VALID,89.1674,VALID,0,VALID,23.4263,VALID,34,VALID,1.43711,
2009-09-30, 02:05:04,VALID,998.08,VALID,0,VALID,89.2818,VALID,0,VALID,23.428,VALID,33,VALID,1.33984,
2009-09-30, 02:06:04,VALID,998.076,VALID,0,VALID,89.4039,VALID,0,VALID,23.428,VALID,35,VALID,1.2418,
2009-09-30, 02:07:04,VALID,998.09,VALID,0,VALID,89.5489,VALID,0,VALID,23.3872,VALID,33,VALID,1.17383,
2009-09-30, 02:08:04,VALID,998.107,VALID,0,VALID,89.6251,VALID,0,VALID,23.4263,VALID,30,VALID,0.994141,
2009-09-30, 02:09:04,VALID,998.072,VALID,0,VALID,89.6404,VALID,0,VALID,23.4067,VALID,25,VALID,0.967578,
2009-09-30, 02:10:04,VALID,998.089,VALID,0,VALID,89.6023,VALID,0,VALID,23.3872,VALID,27,VALID,1.04023,
2009-09-30, 02:11:04,VALID,998.111,VALID,0,VALID,89.5946,VALID,0,VALID,23.3677,VALID,26,VALID,1.11875,
2009-09-30, 02:12:04,VALID,998.093,VALID,0,VALID,89.5641,VALID,0,VALID,23.3482,VALID,30,VALID,1.12305,
2009-09-30, 02:13:04,VALID,998.117,VALID,0,VALID,89.5565,VALID,0,VALID,23.3287,VALID,35,VALID,0.969531,
2009-09-30, 02:14:04,VALID,998.103,VALID,0,VALID,89.5946,VALID,0,VALID,23.3305,VALID,34,VALID,0.851953,
2009-09-30, 02:15:04,VALID,998.114,VALID,0,VALID,89.7167,VALID,0,VALID,23.3305,VALID,34,VALID,0.822656,
2009-09-30, 02:16:04,VALID,998.065,VALID,0,VALID,89.6404,VALID,0,VALID,23.3305,VALID,34,VALID,0.795313,
2009-09-30, 02:17:04,VALID,998.057,VALID,0,VALID,89.6328,VALID,0,VALID,23.35,VALID,34,VALID,0.659766,
2009-09-30, 02:18:04,VALID,998.025,VALID,0,VALID,89.7014,VALID,0,VALID,23.3287,VALID,42,VALID,0.633984,
2009-09-30, 02:19:04,VALID,998.048,VALID,0,VALID,89.6862,VALID,0,VALID,23.3695,VALID,46,VALID,0.732422,
2009-09-30, 02:20:04,VALID,998.057,VALID,0,VALID,89.6709,VALID,0,VALID,23.3677,VALID,46,VALID,0.736719,
2009-09-30, 02:21:04,VALID,998.053,VALID,0,VALID,89.8617,VALID,0.112286,VALID,23.3872,VALID,53,VALID,0.977734,
2009-09-30, 02:22:04,VALID,998.074,VALID,0,VALID,89.9303,VALID,0,VALID,23.4067,VALID,57,VALID,0.9625,
2009-09-30, 02:23:04,VALID,998.047,VALID,0,VALID,89.9074,VALID,0.112286,VALID,23.4067,VALID,57,VALID,0.968359,
2009-09-30, 02:24:04,VALID,998.063,VALID,0,VALID,89.8922,VALID,0.112286,VALID,23.4067,VALID,57,VALID,0.875781,
2009-09-30, 02:25:04,VALID,998.033,VALID,0,VALID,89.8998,VALID,0,VALID,23.428,VALID,59,VALID,0.805859,
2009-09-30, 02:26:04,VALID,998.051,VALID,0,VALID,89.9837,VALID,0,VALID,23.4263,VALID,59,VALID,0.80625,
2009-09-30, 02:27:04,VALID,997.999,VALID,0,VALID,89.8922,VALID,0,VALID,23.428,VALID,64,VALID,0.770312,
2009-09-30, 02:28:04,VALID,998.016,VALID,0,VALID,89.7549,VALID,0,VALID,23.4263,VALID,77,VALID,0.778906,
2009-09-30, 02:29:04,VALID,997.968,VALID,0,VALID,89.6938,VALID,0,VALID,23.4085,VALID,78,VALID,0.826563,
2009-09-30, 02:30:04,VALID,997.97,VALID,0,VALID,89.6938,VALID,0,VALID,23.3908,VALID,94,VALID,0.861719,
2009-09-30, 02:31:04,VALID,997.937,VALID,0,VALID,89.6709,VALID,0,VALID,23.3695,VALID,95,VALID,0.927734,
2009-09-30, 02:32:04,VALID,997.936,VALID,0,VALID,89.6404,VALID,0,VALID,23.3713,VALID,97,VALID,1.06758,
2009-09-30, 02:33:04,VALID,997.968,VALID,0,VALID,89.6557,VALID,0,VALID,23.3713,VALID,96,VALID,1.12266,
2009-09-30, 02:34:04,VALID,997.977,VALID,0,VALID,89.5794,VALID,0,VALID,23.35,VALID,97,VALID,1.04219,
2009-09-30, 02:35:04,VALID,998,VALID,0,VALID,89.5489,VALID,0,VALID,23.3713,VALID,96,VALID,1.13398,
2009-09-30, 02:36:04,VALID,997.99,VALID,0,VALID,89.442,VALID,0,VALID,23.3713,VALID,96,VALID,0.923047,
2009-09-30, 02:37:04,VALID,998.007,VALID,0,VALID,89.4802,VALID,0,VALID,23.3713,VALID,96,VALID,0.960156,
2009-09-30, 02:38:04,VALID,997.989,VALID,0,VALID,89.4954,VALID,0,VALID,23.35,VALID,96,VALID,1.03711,
2009-09-30, 02:39:04,VALID,997.981,VALID,0,VALID,89.6251,VALID,0,VALID,23.3695,VALID,96,VALID,1.01289,
2009-09-30, 02:40:04,VALID,997.945,VALID,0,VALID,89.8006,VALID,0,VALID,23.4103,VALID,96,VALID,1.04844,
2009-09-30, 02:41:04,VALID,997.919,VALID,0,VALID,89.8998,VALID,0,VALID,23.4298,VALID,96,VALID,0.927734,
2009-09-30, 02:42:04,VALID,997.912,VALID,0,VALID,90.0982,VALID,0,VALID,23.4298,VALID,95,VALID,0.971094,
2009-09-30, 02:43:04,VALID,997.914,VALID,0,VALID,90.205,VALID,0,VALID,23.4493,VALID,95,VALID,0.954687,
2009-09-30, 02:44:04,VALID,997.935,VALID,0,VALID,90.1668,VALID,0,VALID,23.4298,VALID,95,VALID,1.03945,
2009-09-30, 02:45:04,VALID,997.937,VALID,0,VALID,90.2508,VALID,0.112286,VALID,23.4263,VALID,95,VALID,0.766797,
2009-09-30, 02:46:04,VALID,997.921,VALID,0,VALID,90.1287,VALID,0,VALID,23.4067,VALID,95,VALID,0.785156,
2009-09-30, 02:47:04,VALID,997.958,VALID,0,VALID,90.3118,VALID,0,VALID,23.3872,VALID,96,VALID,0.521875,
2009-09-30, 02:48:04,VALID,997.924,VALID,0,VALID,90.4034,VALID,0,VALID,23.3872,VALID,96,VALID,0.366406,
2009-09-30, 02:49:04,VALID,997.925,VALID,0,VALID,90.3576,VALID,0.112286,VALID,23.4085,VALID,96,VALID,0.164453,
2009-09-30, 02:50:04,VALID,997.933,VALID,0,VALID,90.3271,VALID,0,VALID,23.389,VALID,96,VALID,0.156641,
2009-09-30, 02:51:04,VALID,997.919,VALID,0,VALID,90.2889,VALID,0,VALID,23.3305,VALID,96,VALID,0.133984,
2009-09-30, 02:52:04,VALID,997.935,VALID,0,VALID,90.266,VALID,0.112286,VALID,23.2897,VALID,96,VALID,0,
2009-09-30, 02:53:04,VALID,997.933,VALID,0,VALID,90.3042,VALID,0,VALID,23.2507,VALID,96,VALID,0.0898438,
2009-09-30, 02:54:04,VALID,997.958,VALID,0,VALID,90.2889,VALID,0,VALID,23.1921,VALID,96,VALID,0.401563,
2009-09-30, 02:55:04,VALID,997.97,VALID,0,VALID,90.411,VALID,0,VALID,23.1531,VALID,96,VALID,0.329688,
2009-09-30, 02:56:04,VALID,997.977,VALID,0,VALID,90.5636,VALID,0.112286,VALID,23.1549,VALID,49,VALID,0.534375,
2009-09-30, 02:57:04,VALID,997.964,VALID,0,VALID,90.6475,VALID,0,VALID,23.1141,VALID,30,VALID,0.567969,
2009-09-30, 02:58:04,VALID,997.948,VALID,0,VALID,90.3957,VALID,0,VALID,23.0964,VALID,30,VALID,0.693359,
2009-09-30, 02:59:04,VALID,997.958,VALID,0,VALID,90.4263,VALID,0,VALID,23.0591,VALID,30,VALID,0.558203,
2009-09-30, 03:00:04,VALID,997.937,VALID,0,VALID,90.5102,VALID,0,VALID,23.0006,VALID,30,VALID,0.258984,
2009-09-30, 03:01:04,VALID,997.919,VALID,0,VALID,90.678,VALID,0,VALID,22.9403,VALID,30,VALID,0.271875,
2009-09-30, 03:02:04,VALID,997.892,VALID,0,VALID,90.8383,VALID,0,VALID,22.942,VALID,30,VALID,0.169922,
2009-09-30, 03:03:04,VALID,997.868,VALID,0,VALID,91.0748,VALID,0,VALID,22.942,VALID,30,VALID,0.0988281,
2009-09-30, 03:04:04,VALID,997.881,VALID,0,VALID,91.1511,VALID,0,VALID,22.9208,VALID,30,VALID,0.185937,
2009-09-30, 03:05:04,VALID,997.852,VALID,0,VALID,91.235,VALID,0,VALID,22.9208,VALID,30,VALID,0.173438,
2009-09-30, 03:06:04,VALID,997.876,VALID,0,VALID,91.3189,VALID,0,VALID,22.9598,VALID,30,VALID,0.141406,
2009-09-30, 03:07:04,VALID,997.888,VALID,0,VALID,91.3342,VALID,0,VALID,22.9598,VALID,30,VALID,0.243359,
2009-09-30, 03:08:04,VALID,997.873,VALID,0,VALID,91.3571,VALID,0,VALID,22.9598,VALID,30,VALID,0.203516,
2009-09-30, 03:09:04,VALID,997.875,VALID,0,VALID,91.3571,VALID,0,VALID,22.9598,VALID,30,VALID,0.228516,
2009-09-30, 03:10:04,VALID,997.845,VALID,0,VALID,91.38,VALID,0,VALID,22.9598,VALID,30,VALID,0.331641,
2009-09-30, 03:11:04,VALID,997.808,VALID,0,VALID,91.4563,VALID,0,VALID,22.9811,VALID,30,VALID,0.375,
2009-09-30, 03:12:04,VALID,997.814,VALID,0,VALID,91.441,VALID,0,VALID,22.9811,VALID,30,VALID,0.535937,
2009-09-30, 03:13:04,VALID,997.846,VALID,0,VALID,91.4563,VALID,0,VALID,22.9793,VALID,30,VALID,0.53125,
2009-09-30, 03:14:04,VALID,997.841,VALID,0,VALID,91.3189,VALID,0,VALID,22.9793,VALID,30,VALID,0.569531,
2009-09-30, 03:15:04,VALID,997.868,VALID,0,VALID,91.502,VALID,0,VALID,23.0006,VALID,30,VALID,0.624609,
2009-09-30, 03:16:04,VALID,997.849,VALID,0,VALID,91.235,VALID,0,VALID,23.0201,VALID,30,VALID,0.585156,
2009-09-30, 03:17:04,VALID,997.864,VALID,0,VALID,91.1511,VALID,0,VALID,23.0006,VALID,34,VALID,0.575781,
2009-09-30, 03:18:04,VALID,997.848,VALID,0,VALID,91.235,VALID,0,VALID,22.9811,VALID,34,VALID,0.647656,
2009-09-30, 03:19:04,VALID,997.893,VALID,0,VALID,91.235,VALID,0,VALID,22.9811,VALID,34,VALID,0.729688,
2009-09-30, 03:20:04,VALID,997.872,VALID,0,VALID,90.5407,VALID,0,VALID,22.903,VALID,34,VALID,0.683594,
2009-09-30, 03:21:04,VALID,997.862,VALID,0,VALID,90.1974,VALID,0,VALID,22.786,VALID,43,VALID,0.825,
2009-09-30, 03:22:04,VALID,997.868,VALID,0,VALID,90.6323,VALID,0,VALID,22.7079,VALID,46,VALID,0.748828,
2009-09-30, 03:23:04,VALID,997.848,VALID,0,VALID,90.6857,VALID,0,VALID,22.6477,VALID,50,VALID,0.632031,
2009-09-30, 03:24:04,VALID,997.862,VALID,0,VALID,90.7925,VALID,0,VALID,22.6087,VALID,50,VALID,0.558984,
2009-09-30, 03:25:04,VALID,997.858,VALID,0,VALID,90.9527,VALID,0,VALID,22.5909,VALID,50,VALID,0.532812,
2009-09-30, 03:26:04,VALID,997.866,VALID,0,VALID,91.1053,VALID,0,VALID,22.5306,VALID,50,VALID,0.523828,
2009-09-30, 03:27:04,VALID,997.906,VALID,0,VALID,91.09,VALID,0,VALID,22.4916,VALID,50,VALID,0.408984,
2009-09-30, 03:28:04,VALID,997.889,VALID,0,VALID,91.029,VALID,0,VALID,22.4933,VALID,50,VALID,0.289844,
2009-09-30, 03:29:04,VALID,997.926,VALID,0,VALID,91.0366,VALID,0,VALID,22.4136,VALID,50,VALID,0.248047,
2009-09-30, 03:30:04,VALID,997.927,VALID,0,VALID,91.1663,VALID,0,VALID,22.3746,VALID,50,VALID,0.0636719,
2009-09-30, 03:31:04,VALID,997.915,VALID,0,VALID,91.3418,VALID,0,VALID,22.3551,VALID,50,VALID,0.203516,
2009-09-30, 03:32:04,VALID,997.918,VALID,0,VALID,91.5326,VALID,0,VALID,22.3551,VALID,50,VALID,0.271484,
2009-09-30, 03:33:04,VALID,997.925,VALID,0,VALID,91.708,VALID,0,VALID,22.3551,VALID,50,VALID,0.233203,
2009-09-30, 03:34:04,VALID,997.918,VALID,0,VALID,91.7691,VALID,0,VALID,22.3746,VALID,50,VALID,0.188281,
2009-09-30, 03:35:04,VALID,997.916,VALID,0,VALID,91.8988,VALID,0,VALID,22.4153,VALID,50,VALID,0.329688,
2009-09-30, 03:36:04,VALID,997.956,VALID,0,VALID,91.9674,VALID,0,VALID,22.4331,VALID,50,VALID,0.190625,
2009-09-30, 03:37:04,VALID,997.957,VALID,0,VALID,92.0056,VALID,0,VALID,22.4526,VALID,50,VALID,0.210547,
2009-09-30, 03:38:04,VALID,997.988,VALID,0,VALID,91.998,VALID,0,VALID,22.4721,VALID,50,VALID,0.30625,
2009-09-30, 03:39:04,VALID,998.024,VALID,0,VALID,92.0666,VALID,0,VALID,22.4916,VALID,50,VALID,0.282813,
2009-09-30, 03:40:04,VALID,998.037,VALID,0,VALID,91.9751,VALID,0,VALID,22.5306,VALID,23,VALID,0.477734,
2009-09-30, 03:41:04,VALID,998.042,VALID,0,VALID,92.059,VALID,0,VALID,22.5306,VALID,360,VALID,0.472656,
2009-09-30, 03:42:04,VALID,998.062,VALID,0,VALID,92.12,VALID,0,VALID,22.5696,VALID,360,VALID,0.31875,
2009-09-30, 03:43:04,VALID,998.087,VALID,0,VALID,92.0819,VALID,0,VALID,22.5909,VALID,360,VALID,0.374219,
2009-09-30, 03:44:04,VALID,998.062,VALID,0,VALID,92.1582,VALID,0,VALID,22.5892,VALID,360,VALID,0.414063,
2009-09-30, 03:45:04,VALID,998.061,VALID,0,VALID,92.1963,VALID,0,VALID,22.6087,VALID,360,VALID,0.458594,
2009-09-30, 03:46:04,VALID,998.083,VALID,0,VALID,92.1048,VALID,0,VALID,22.6282,VALID,360,VALID,0.473828,